Regional Weather Roundup
Issued by NWS New Orleans/Baton Rouge, LA

Home | Current Version | Previous Version | Graphics & Text | Print | Product List | Glossary On
Versions: 1 2 3 4 5 6 7 8 9 10 11 12 13 14 15 16 17 18 19 20 21 22 23 24 25 26 27 28 29 30 31 32 33 34 35 36 37 38 39 40 41 42 43 44 45 46 47 48 49 50
594
ASUS44 KLIX 220910
RWRLIX
NEW ORLEANS REGIONAL WEATHER ROUNDUP
NATIONAL WEATHER SERVICE NEW ORLEANS LA
400 AM CDT WED OCT 22 2014

NOTE: "FAIR" INDICATES FEW OR NO CLOUDS BELOW 12,000 FEET WITH NO
      SIGNIFICANT WEATHER AND/OR OBSTRUCTIONS TO VISIBILITY.
      SKY/WX - SKY CONDITION AND SIGNIFICANT WEATHER.
      TMP - AIR TEMPERATURE.     DP    - DEWPOINT TEMPERATURE.
      RH  - RELATIVE HUMIDITY.   PRES  - PRESSURE.
      HI  - HEAT INDEX.          WCI   - WIND CHILL INDEX.

*  THESE STATIONS ARE NOT NWS OR FAA STATIONS AND ARE NOT UNDER
   NWS QUALITY CONTROL.

LAZ038-040-048-061>063-065>067-069-221000-
SOUTHEAST LOUISIANA

CITY           SKY/WX    TMP DP  RH WIND       PRES   REMARKS
N.O. AUDUBON   NOT AVBL
N.O. INTL ARPT PTCLDY    67  58  72 E5        30.02S
N.O. LAKEFRONT CLEAR     70  60  70 NE13      30.02S
N.O. DOWNTOWN*   N/A     66  55  68 CALM      30.03S
SLIDELL        CLEAR     53  50  89 N3        30.02S
BATON ROUGE    CLEAR     57  55  93 CALM      30.04S
BOOTHVILLE     CLEAR     70  64  81 VRB6      30.00S
BELLE CHASSE   CLEAR     57  54  89 N3        30.01S
BOGALUSA*        N/A     56  53  90 CALM      30.05S
NEW ROADS*       N/A     58  57  95 CALM      30.05S
GONZALES*        N/A     58  58 100 CALM      30.03S
HAMMOND*       CLEAR     55  52  88 CALM      30.05S
HOUMA*         CLEAR     58  55  91 CALM      30.02S
PORT FOURCHON* SUNNY     70  63  78 N6        30.03S

$$

MSZ070-080>082-221000-
SOUTHERN MISSISSIPPI

CITY           SKY/WX    TMP DP  RH WIND       PRES   REMARKS
MCCOMB         CLEAR     61  54  77 N5        30.05S
GULFPORT       CLEAR     56  53  90 N3        30.02S
BILOXI         CLEAR     58  55  89 NE7       30.02S
PASCAGOULA     CLEAR     50  50 100 CALM      30.02S

$$

COASTAL OBSERVATIONS
LAKE AND NEARSHORE STATIONS

STATION/POSITION TIME  TEMP    WIND        PRES    WAVE
                       AIR SEA DIR/SP/G            HT/PER
                 (UTC) (F)     (DEG/KT/KT) (MB)    (FT/S)
PASCAGOULA       0900   61      10/  6/  8 1015.9
WAVELAND YACHT   0900   65      20/  8/ 10 1015.8
GRAND ISLE       0900   71 75   40/  9/ 12 1016.2
SOUTHWEST PASS   0900   73 83              1015.6
NEW CANAL        0900   71 72   60/ 12/ 14 1016.7
SHELL BEACH      0900   71 69   40/ 11/ 12 1016.1

OFFSHORE STATIONS

STATION/POSITION TIME  TEMP    WIND        PRES    WAVE
                       AIR SEA DIR/SP/G            HT/PER
                 (UTC) (F)     (DEG/KT/KT) (MB)    (FT/S)
64 S DAUPHIN ISL 0846   76 79   40/ 16/ 17 1015.3    2/ 4

$$




USA.gov is the U.S. government's official web portal to all federal, state and local government web resources and services.